Belize, Belize

7:41 AM CST on July 23, 2017 (GMT -0600)
Philip S W Goldson International

Weather History for MZBZ - September, 2012

Change the Weather History Date:

Wednesday, September 19, 2012

  Actual Average Record
Temperature  
Mean Temperature 83 °F -  
Max Temperature 90 °F 87 °F 93 °F (1998)
Min Temperature 76 °F 74 °F 37 °F (2003)
Cooling Degree Days 18    
Growing Degree Days 33 (Base 50)    
Moisture  
Dew Point 77 °F    
Average Humidity 78    
Maximum Humidity 100    
Minimum Humidity 56    
Precipitation  
Precipitation 0.28 in 0.35 in - ()
Sea Level Pressure  
Sea Level Pressure 29.92 in    
Wind  
Wind Speed 3 mph ()    
Max Wind Speed 10 mph    
Max Gust Speed -    
Visibility 8.3 miles    
Events Thunderstorm    
Averages and records for this station are not official NWS values.
T = Trace of Precipitation, MM = Missing Value Source: Averaged Metar Reports

Daily Weather History Graph

Daily Weather History Graph

Search for Another Location

Airport or City:

Trip Planner

Search our weather history database for the weather conditions in past years. The results will help you decide how hot, cold, wet, or windy it might be!

Date:

Astronomy

Sep. 19, 2012 Rise Set
Actual Time 5:41 AM CST 5:51 PM CST
Civil Twilight 5:20 AM CST 6:13 PM CST
Nautical Twilight 4:54 AM CST 6:38 PM CST
Astronomical Twilight 4:29 AM CST 7:03 PM CST
Moon 9:08 AM CST (9/19) 8:46 PM CST (9/19)
Length of Visible Light 12h 53m
Length of Day
12h 09m
Waxing Crescent, 17% of the Moon is Illuminated
Sep 19
Waxing Crescent
Sep 22
First Quarter
Sep 29
Full
Oct 8
Last Quarter
Oct 15
New

Hourly Weather History & Observations

Time (CST) Temp. Heat Index Dew Point Humidity Pressure Visibility Wind Dir Wind Speed Gust Speed Precip Events Conditions
12:00 AM 82 °F - 78 °F 85% 29.92 in 12 mi ESE 3.5 mph - -   Partly Cloudy
3:00 AM 82 °F - 79 °F 89% 29.91 in 12 mi Calm Calm - -  
5:00 AM 77.0 °F - 75.2 °F 94% 29.91 in 6.2 mi Calm Calm - N/A   Mostly Cloudy
6:00 AM 78 °F - 77 °F 95% 29.93 in 12 mi Calm Calm - -   Partly Cloudy
6:00 AM 77.0 °F - 77.0 °F 100% 29.92 in 6.2 mi Calm Calm - N/A   Mostly Cloudy
6:30 AM 77.0 °F - 77.0 °F 100% 29.92 in 6.2 mi Calm Calm - N/A Thunderstorm Thunderstorm
7:00 AM 80.6 °F 89.3 °F 80.6 °F 100% 29.95 in 6.2 mi SSW 2.3 mph - N/A Thunderstorm Thunderstorm
8:00 AM 82.4 °F 90.9 °F 77.0 °F 84% 29.92 in 6.2 mi East 4.6 mph - N/A   Mostly Cloudy
9:00 AM 87 °F - 79 °F 72% 29.96 in 12 mi ESE 4.6 mph - -   Partly Cloudy
9:00 AM 87.8 °F 102.5 °F 78.8 °F 75% 29.95 in 6.2 mi ESE 4.6 mph - N/A   Mostly Cloudy
10:00 AM 86.0 °F 99.3 °F 78.8 °F 79% 29.96 in 6.2 mi ESE 3.5 mph - N/A   Mostly Cloudy
11:00 AM 89.6 °F 102.2 °F 77.0 °F 66% 29.95 in 6.2 mi ESE 8.1 mph - N/A   Scattered Clouds
12:00 PM 89 °F - 76 °F 57% 29.93 in 12 mi East 9.2 mph - -   Partly Cloudy
12:00 PM 89.6 °F 99.8 °F 75.2 °F 62% 29.92 in 6.2 mi East 9.2 mph - N/A   Scattered Clouds
1:00 PM 89.6 °F 99.8 °F 75.2 °F 62% 29.95 in 6.2 mi East 8.1 mph - N/A   Mostly Cloudy
2:00 PM 89.6 °F 102.2 °F 77.0 °F 66% 29.88 in 6.2 mi East 10.4 mph - N/A   Scattered Clouds
3:00 PM 89 °F - 75 °F 56% 29.88 in 12 mi ESE 8.1 mph - -   Scattered Clouds
3:00 PM 89.6 °F 99.8 °F 75.2 °F 62% 29.87 in 6.2 mi ESE 8.1 mph - N/A   Partly Cloudy
5:00 PM 86.0 °F 96.9 °F 77.0 °F 74% 29.86 in 6.2 mi East 5.8 mph - N/A   Mostly Cloudy
6:00 PM 85 °F - 78 °F 74% 29.90 in 12 mi East 4.6 mph - -   Scattered Clouds
6:00 PM 84.2 °F 96.1 °F 78.8 °F 84% 29.89 in 6.2 mi East 4.6 mph - N/A   Mostly Cloudy
9:00 PM 84 °F - 77 °F 75% 29.96 in 12 mi East 4.6 mph - -   Partly Cloudy